Location: Borojevi?i
(45.0486°N, 16.2297°E)
Time: 21:22:55
(UTC+00:00)

COSMOS 2428 - Pass Details

Date: 08 August 2020
Orbit: 844 x 859 km, 70.9° (Epoch: 22 September)

Event Time Altitude Azimuth Distance (km) Brightness Sun altitude
Rises 22:13:41 0° 338° (NNW) 3,433 7.1 -28.2°
Reaches altitude 10° 22:16:19 10° 347° (NNW) 2,495 6.1 -28.3°
Maximum altitude 22:21:40 39° 55° (NE) 1,265 3.7 -28.5°
Enters shadow 22:22:36 37° 78° (ENE) 1,318 3.6 -28.5°
